This demonstration page uses our WeatherBlox Daily Observations layout. Learn more.

36.19886, -115.1175

Hourly Observations for November 14, 2019

Temp ( °F °C ) Dew Point ( °F °C ) Humidity (%) Winds ( mph kmh ) Pressure ( in mb ) Visibility ( mi km ) Precip ( " mm )
12:53 am 00:53 Clear 52 11.1 27 -2.8 38 38 WNW 5 7 30.06 1018 10 16.09344 0 0
1:53 am 01:53 Clear 53 11.7 28 -2.2 38 38 WNW 6 9 30.06 1018 10 16.09344 0 0
2:53 am 02:53 Clear 51 10.6 26 -3.3 38 38 NW 5 7 30.06 1018 10 16.09344 0 0
3:53 am 03:53 Clear 50 10 26 -3.3 39 39 NW 5 7 30.06 1018 10 16.09344 0 0
4:53 am 04:53 Clear 52 11.1 28 -2.2 40 40 WNW 5 7 30.09 1019 10 16.09344 0 0
5:53 am 05:53 Clear 52 11.1 28 -2.2 40 40 WNW 5 7 30.09 1019 10 16.09344 0 0
6:53 am 06:53 Sunny 52 11.1 28 -2.2 40 40 NNW 3 6 30.12 1020 10 16.09344 0 0
7:53 am 07:53 Sunny 57 13.9 28 -2.2 33 33 Calm 30.12 1020 10 16.09344 0 0
8:53 am 08:53 Sunny 61 16.1 24 -4.4 24 24 SE 3 6 30.15 1021 10 16.09344 0 0
9:53 am 09:53 Sunny 63 17.2 22 -5.6 21 21 ESE 5 7 30.15 1021 10 16.09344 0 0
10:53 am 10:53 Sunny 66 18.9 21 -6.1 18 18 SE 8 13 30.15 1021 10 16.09344 0 0
11:53 am 11:53 Sunny 69 20.6 21 -6.1 16 16 E 5 7 30.12 1020 10 16.09344 0 0
12:53 pm 12:53 Sunny 71 21.7 21 -6.1 15 15 E 5 7 30.09 1019 10 16.09344 0 0
1:53 pm 13:53 Sunny 71 21.7 22 -5.6 16 16 ESE 6 9 30.06 1018 10 16.09344 0 0
2:53 pm 14:53 Sunny 72 22.2 22 -5.6 15 15 SE 7 11 30.06 1018 10 16.09344 0 0
3:53 pm 15:53 Sunny 71 21.7 22 -5.6 16 16 E 3 6 30.06 1018 10 16.09344 0 0
4:53 pm 16:53 Clear 68 20 22 -5.6 17 17 E 5 7 30.09 1019 10 16.09344 0 0
5:53 pm 17:53 Clear 68 20 25 -3.9 20 20 Calm 30.09 1019 10 16.09344 0 0
6:53 pm 18:53 Clear 66 18.9 26 -3.3 22 22 Calm 30.09 1019 10 16.09344 0 0
7:53 pm 19:53 Clear 64 17.8 25 -3.9 23 23 Calm 30.09 1019 10 16.09344 0 0
8:53 pm 20:53 Clear 61 16.1 29 -1.7 30 30 NW 3 6 30.12 1020 10 16.09344 0 0
9:53 pm 21:53 Clear 60 15.6 28 -2.2 30 30 WNW 5 7 30.12 1020 10 16.09344 0 0
10:53 pm 22:53 Clear 60 15.6 30 -1.1 32 32 WNW 5 7 30.12 1020 10 16.09344 0 0
11:53 pm 23:53 Clear 60 15.6 29 -1.7 31 31 Calm 30.12 1020 10 16.09344 0 0

Powered by AerisWeather